User: anonymous   Login
Location: Caltech
(34.1382°N, 118.1253°W)
Time: 18:14:14
(UTC-08:00)
Language:

NOSS 3-2 (A) - Orbit

View from above orbital plane
View from above orbital plane
View from above satellite
View from above satellite

Ground track
Ground track

The orbit data is extracted from the following two-line orbital elements,

1 28095U 03054A   14324.76916376 0.00000000  00000-0  00000-0 0    08
2 28095  63.4290 189.1703 0221000 358.0656   1.9344 13.41296384    09
Epoch (UTC): 20 November 2014 18:27:35
Eccentricity: 0.0221000
inclination: 63.4290°
perigee height: 939 km
apogee height: 1270 km
right ascension of ascending node: 189.1703°
argument of perigee: 358.0656°
revolutions per day: 13.41296384
mean anomaly at epoch: 1.9344°
orbit number at epoch: 0

The dashed part of the orbit path shows where the satellite is in the earth's shadow,  

DLR